Location: Newark
(48.1500°N, 2.9667°W)
Time: 23:18:38
(UTC+00:00)

Vanguard 1 Rocket - All Passes

Search period start: 18 January 2020 00:00
Search period end: 28 January 2020 00:00
Orbit: 650 x 4226 km, 34.3° (Epoch: 17 January)

Date Brightness Start Highest point End Pass type
(mag) Time Alt. Az. Time Alt. Az. Time Alt. Az.
18 Jan - 10:55:05 10° SSW 11:05:05 35° SE 11:21:58 10° E daylight
18 Jan - 13:17:55 10° WSW 13:32:00 52° S 13:55:14 10° ESE daylight
18 Jan - 15:43:37 10° W 16:01:32 47° SSW 16:25:25 10° SE daylight
18 Jan - 18:13:05 10° W 18:30:37 28° SW 18:49:19 10° S visible
19 Jan - 09:46:21 10° S 09:54:00 23° SE 10:05:42 10° E daylight
19 Jan - 12:07:22 10° SW 12:19:10 47° SSE 12:39:51 10° E daylight
19 Jan - 14:31:48 10° WSW 14:47:41 51° S 15:11:43 10° ESE daylight
19 Jan - 16:59:08 10° W 17:17:14 36° SSW 17:38:48 10° SSE visible
19 Jan - 19:35:06 10° WSW 19:44:50 14° SW 19:54:40 10° SSW visible
20 Jan - 08:40:16 10° SE 08:43:36 12° SE 08:47:33 10° ESE daylight
20 Jan - 10:57:27 10° SW 11:07:10 38° SSE 11:24:09 10° E daylight
20 Jan - 13:20:38 10° WSW 13:34:15 52° S 13:57:04 10° ESE daylight
20 Jan - 15:46:27 10° W 16:03:32 43° SSW 16:26:39 10° SE daylight
20 Jan - 18:16:49 10° W 18:32:11 22° SW 18:48:55 10° S visible
21 Jan - 09:48:20 10° SSW 09:56:00 27° SE 10:08:18 10° E daylight
21 Jan - 12:10:02 10° WSW 12:21:26 48° SSE 12:41:48 10° ESE daylight
21 Jan - 14:34:38 10° W 14:49:52 48° SSW 15:13:13 10° SE daylight
21 Jan - 17:02:19 10° W 17:19:01 31° SW 17:39:14 10° SSE visible
22 Jan - 08:40:47 10° SSE 08:45:30 15° SE 08:51:43 10° ESE daylight
22 Jan - 10:59:58 10° SW 11:09:24 40° SSE 11:26:17 10° E daylight
22 Jan - 13:23:27 10° WSW 13:36:33 50° S 13:58:46 10° ESE daylight
22 Jan - 15:49:26 10° W 16:05:32 38° SSW 16:27:35 10° SSE daylight
22 Jan - 18:21:25 10° W 18:33:49 17° SW 18:47:21 10° SSW visible
23 Jan - 09:50:34 10° SSW 09:58:08 30° SE 10:10:45 10° E daylight
23 Jan - 12:12:47 10° WSW 12:23:48 48° S 12:43:41 10° ESE daylight
23 Jan - 14:37:33 10° W 14:52:05 44° SSW 15:14:29 10° SE daylight
23 Jan - 17:05:51 10° W 17:20:51 25° SW 17:39:04 10° S visible
24 Jan - 08:42:16 10° S 08:47:32 18° SE 08:54:59 10° E daylight
24 Jan - 11:02:38 10° SW 11:11:44 42° SSE 11:28:20 10° E daylight
24 Jan - 13:26:19 10° WSW 13:38:54 47° S 14:00:19 10° SE daylight
24 Jan - 15:52:37 10° W 16:07:35 33° SSW 16:28:06 10° SSE daylight
24 Jan - 18:28:15 10° WSW 18:35:31 12° SW 18:43:14 10° SSW visible
25 Jan - 09:53:01 10° SSW 10:00:24 32° SSE 10:13:05 10° E daylight
25 Jan - 12:15:38 10° WSW 12:26:14 47° S 12:45:27 10° ESE daylight
25 Jan - 14:40:34 10° W 14:54:19 39° SSW 15:15:28 10° SE daylight
25 Jan - 17:09:59 10° W 17:22:44 20° SW 17:38:01 10° S visible
26 Jan - 08:44:13 10° S 08:49:42 21° SE 08:57:52 10° E daylight
26 Jan - 11:05:23 10° SW 11:14:12 43° SSE 11:30:21 10° ESE daylight
26 Jan - 13:29:17 10° WSW 13:41:17 43° SSW 14:01:40 10° SE daylight
26 Jan - 15:56:04 10° W 16:09:41 27° SSW 16:28:06 10° SSE daylight
27 Jan - 07:38:38 10° SE 07:39:30 10° SE 07:40:24 10° SE daylight
27 Jan - 09:55:37 10° SW 10:02:47 34° SSE 10:15:21 10° E daylight
27 Jan - 12:18:32 10° WSW 12:28:43 44° S 12:47:07 10° ESE daylight
27 Jan - 14:43:45 10° W 14:56:35 34° SSW 15:16:07 10° SSE daylight
27 Jan - 17:15:22 10° WSW 17:24:41 15° SW 17:35:26 10° SSW visible
